Meadow Lake, CO

2:13 AM MDT on April 20, 2018 (GMT -0600)
Meadow Lake

Weather History for KFLY - July, 2013

Change the Weather History Date:

Thursday, July 4, 2013

  Actual Average (KCOS) Record (KCOS)
Temperature  
Mean Temperature 70 °F -  
Max Temperature 88 °F 84 °F 99 °F (1964)
Min Temperature 54 °F 55 °F 37 °F (1903)
Cooling Degree Days 6    
Growing Degree Days 20 (Base 50)    
Moisture  
Dew Point 38 °F    
Average Humidity 33    
Maximum Humidity 76    
Minimum Humidity 13    
Precipitation  
Precipitation 0.00 in - - ()
Sea Level Pressure  
Sea Level Pressure 30.14 in    
Wind  
Wind Speed 7 mph (NNW)    
Max Wind Speed 22 mph    
Max Gust Speed 32 mph    
Visibility 10 miles    
Events      
Averages and records for this station are not official NWS values.
T = Trace of Precipitation, MM = Missing Value Source: NWS Daily Summary

Daily Weather History Graph

Daily Weather History Graph

Search for Another Location

Airport or City:

Astronomy

Jul. 04, 2013 Rise Set
Actual Time 5:38 AM MDT 8:27 PM MDT
Civil Twilight 5:06 AM MDT 8:58 PM MDT
Nautical Twilight 4:26 AM MDT 9:38 PM MDT
Astronomical Twilight 3:40 AM MDT 10:24 PM MDT
Moon 2:55 AM MDT (7/4) 5:34 PM MDT (7/4)
Length of Visible Light 15h 52m
Length of Day
14h 48m
Waning Crescent, 11% of the Moon is Illuminated
Jul 4
Waning Crescent
Jul 8
New
Jul 15
First Quarter
Jul 22
Full
Jul 29
Last Quarter

Hourly Weather History & Observations

Time (MDT) Temp. Dew Point Humidity Pressure Visibility Wind Dir Wind Speed Gust Speed Precip Events Conditions
12:10 AM 59.4 °F 45.3 °F 60% 30.16 in 10.0 mi Calm Calm - N/A   Clear
12:30 AM 58.8 °F 45.5 °F 61% 30.16 in 10.0 mi Calm Calm - N/A   Clear
12:50 AM 57.6 °F 45.9 °F 65% 30.15 in 10.0 mi Calm Calm - N/A   Clear
1:10 AM 56.3 °F 45.9 °F 68% 30.15 in 10.0 mi NNW 3.5 mph - N/A   Clear
1:30 AM 55.9 °F 46.4 °F 70% 30.15 in 10.0 mi Calm Calm - N/A   Clear
1:50 AM 54.7 °F 46.4 °F 74% 30.15 in 10.0 mi North 3.5 mph - N/A   Clear
2:10 AM 54.1 °F 46.6 °F 76% 30.14 in 10.0 mi NNW 8.1 mph - N/A   Clear
2:30 AM 55.4 °F 46.4 °F 72% 30.14 in 10.0 mi Calm Calm - N/A   Clear
2:50 AM 54.9 °F 46.0 °F 72% 30.14 in 10.0 mi NW 8.1 mph - N/A   Clear
3:10 AM 55.6 °F 44.4 °F 66% 30.13 in 10.0 mi NW 6.9 mph - N/A   Clear
3:30 AM 60.8 °F 42.1 °F 50% 30.12 in 10.0 mi NW 9.2 mph - N/A   Clear
3:50 AM 60.8 °F 41.4 °F 49% 30.12 in 10.0 mi NW 10.4 mph - N/A   Clear
4:10 AM 60.8 °F 40.8 °F 48% 30.12 in 10.0 mi NW 9.2 mph - N/A   Clear
4:30 AM 62.6 °F 40.1 °F 44% 30.12 in 10.0 mi NNW 9.2 mph 16.1 mph N/A   Clear
4:50 AM 63.0 °F 39.6 °F 42% 30.12 in 10.0 mi NNW 9.2 mph - N/A   Clear
5:10 AM 62.8 °F 39.7 °F 43% 30.12 in 10.0 mi NNW 10.4 mph - N/A   Clear
5:30 AM 62.6 °F 39.6 °F 43% 30.12 in 10.0 mi NNW 10.4 mph - N/A   Clear
5:50 AM 63.5 °F 39.4 °F 41% 30.13 in 10.0 mi NNW 10.4 mph 17.3 mph N/A   Clear
6:10 AM 63.7 °F 39.7 °F 41% 30.14 in 10.0 mi NNW 9.2 mph 18.4 mph N/A   Clear
6:30 AM 65.3 °F 39.9 °F 39% 30.14 in 10.0 mi NNW 10.4 mph 16.1 mph N/A   Clear
6:50 AM 66.9 °F 39.9 °F 37% 30.14 in 10.0 mi NNW 11.5 mph 19.6 mph N/A   Clear
7:10 AM 68.7 °F 39.4 °F 34% 30.15 in 10.0 mi NNW 11.5 mph 19.6 mph N/A   Clear
7:30 AM 70.3 °F 39.6 °F 33% 30.15 in 10.0 mi NNW 10.4 mph 18.4 mph N/A   Clear
7:50 AM 71.6 °F 38.8 °F 30% 30.16 in 10.0 mi NNW 10.4 mph 18.4 mph N/A   Clear
8:10 AM 73.6 °F 38.1 °F 28% 30.17 in 10.0 mi NNW 10.4 mph 20.7 mph N/A   Clear
8:30 AM 73.8 °F 37.8 °F 27% 30.17 in 10.0 mi North 13.8 mph 19.6 mph N/A   Clear
8:50 AM 75.2 °F 37.9 °F 26% 30.18 in 10.0 mi North 13.8 mph 19.6 mph N/A   Clear
9:10 AM 76.1 °F 37.4 °F 25% 30.18 in 10.0 mi North 13.8 mph 20.7 mph N/A   Clear
9:30 AM 76.3 °F 36.7 °F 24% 30.18 in 10.0 mi North 13.8 mph 18.4 mph N/A   Clear
9:50 AM 77.9 °F 35.2 °F 21% 30.18 in 10.0 mi North 15.0 mph 18.4 mph N/A   Clear
10:10 AM 78.8 °F 34.5 °F 20% 30.18 in 10.0 mi NNW 11.5 mph 18.4 mph N/A   Clear
10:30 AM 79.3 °F 33.4 °F 19% 30.17 in 10.0 mi NNW 9.2 mph 16.1 mph N/A   Clear
10:50 AM 80.8 °F 32.7 °F 18% 30.17 in 10.0 mi North 10.4 mph - N/A   Clear
11:10 AM 80.8 °F 31.6 °F 17% 30.16 in 10.0 mi North 10.4 mph 17.3 mph N/A   Clear
11:30 AM 81.9 °F 31.3 °F 16% 30.16 in 10.0 mi North 11.5 mph 17.3 mph N/A   Clear
11:50 AM 82.2 °F 30.9 °F 16% 30.16 in 10.0 mi North 9.2 mph 21.9 mph N/A   Clear
12:10 PM 83.1 °F 30.9 °F 15% 30.15 in 10.0 mi NNE 12.7 mph 23.0 mph N/A   Clear
12:30 PM 84.2 °F 31.5 °F 15% 30.15 in 10.0 mi NNE 4.6 mph 19.6 mph N/A   Clear
12:50 PM 83.8 °F 31.3 °F 15% 30.15 in 10.0 mi North 6.9 mph 21.9 mph N/A   Scattered Clouds
1:10 PM 83.3 °F 31.1 °F 15% 30.14 in 10.0 mi NNE 13.8 mph 20.7 mph N/A   Scattered Clouds
1:30 PM 85.1 °F 31.5 °F 15% 30.14 in 10.0 mi NNW 10.4 mph 20.7 mph N/A   Scattered Clouds
1:50 PM 84.9 °F 32.0 °F 15% 30.14 in 10.0 mi NNW 5.8 mph 17.3 mph N/A   Scattered Clouds
2:10 PM 85.6 °F 32.5 °F 15% 30.14 in 10.0 mi NNW 4.6 mph 32.2 mph N/A   Scattered Clouds
2:30 PM 86.4 °F 31.8 °F 14% 30.13 in 10.0 mi North 11.5 mph 20.7 mph N/A   Scattered Clouds
2:50 PM 86.0 °F 28.9 °F 13% 30.13 in 10.0 mi North 9.2 mph 20.7 mph N/A   Scattered Clouds
3:10 PM 86.4 °F 30.7 °F 14% 30.12 in 10.0 mi NNE 12.7 mph 20.7 mph N/A   Clear
3:30 PM 87.8 °F 30.2 °F 13% 30.12 in 10.0 mi NNE 12.7 mph 18.4 mph N/A   Scattered Clouds
3:50 PM 86.4 °F 30.0 °F 13% 30.11 in 10.0 mi NE 10.4 mph 18.4 mph N/A   Clear
4:10 PM 86.4 °F 30.0 °F 13% 30.10 in 10.0 mi ENE 13.8 mph 21.9 mph N/A   Clear
4:30 PM 87.1 °F 30.4 °F 13% 30.09 in 10.0 mi North 16.1 mph 23.0 mph N/A   Clear
4:50 PM 87.1 °F 29.8 °F 13% 30.10 in 10.0 mi NNE 5.8 mph 16.1 mph N/A   Clear
5:10 PM 84.0 °F 29.3 °F 14% 30.10 in 10.0 mi NNE 8.1 mph - N/A   Scattered Clouds
5:30 PM 83.3 °F 28.6 °F 14% 30.10 in 10.0 mi NE 9.2 mph - N/A   Clear
5:50 PM 81.9 °F 27.0 °F 13% 30.10 in 10.0 mi NNE 11.5 mph 16.1 mph N/A   Scattered Clouds
6:10 PM 81.0 °F 27.3 °F 14% 30.11 in 10.0 mi NNE 9.2 mph - N/A   Mostly Cloudy
6:30 PM 78.8 °F 37.8 °F 23% 30.12 in 10.0 mi WNW 15.0 mph 25.3 mph N/A   Overcast
6:50 PM 74.5 °F 41.0 °F 30% 30.12 in 10.0 mi West 15.0 mph 20.7 mph N/A   Overcast
7:10 PM 74.3 °F 40.6 °F 30% 30.13 in 10.0 mi West 17.3 mph - N/A   Mostly Cloudy
7:30 PM 73.0 °F 40.6 °F 31% 30.13 in 10.0 mi NW 21.9 mph 28.8 mph N/A   Overcast
7:50 PM 72.9 °F 39.0 °F 29% 30.13 in 10.0 mi West 11.5 mph 21.9 mph N/A   Overcast
8:10 PM 72.1 °F 40.3 °F 32% 30.12 in 10.0 mi WNW 8.1 mph - N/A   Scattered Clouds
8:30 PM 71.4 °F 39.4 °F 31% 30.13 in 10.0 mi NW 10.4 mph 19.6 mph N/A   Clear
8:50 PM 72.0 °F 40.6 °F 32% 30.13 in 10.0 mi WNW 5.8 mph - N/A   Clear
9:10 PM 70.5 °F 41.7 °F 35% 30.13 in 10.0 mi West 3.5 mph - N/A   Clear
9:30 PM 69.4 °F 43.0 °F 38% 30.14 in 10.0 mi WNW 6.9 mph - N/A   Clear
9:50 PM 69.3 °F 43.3 °F 39% 30.14 in 10.0 mi WNW 6.9 mph - N/A   Clear
10:10 PM 69.8 °F 41.4 °F 36% 30.13 in 10.0 mi WNW 6.9 mph - N/A   Clear
10:30 PM 68.9 °F 40.1 °F 35% 30.13 in 10.0 mi NW 6.9 mph - N/A   Clear
10:50 PM 67.3 °F 40.8 °F 38% 30.12 in 10.0 mi NW 4.6 mph - N/A   Clear
11:10 PM 65.1 °F 42.4 °F 44% 30.13 in 10.0 mi SSE 5.8 mph - N/A   Clear
11:30 PM 63.5 °F 43.0 °F 47% 30.13 in 10.0 mi Calm Calm - N/A   Clear
11:50 PM 63.3 °F 42.8 °F 47% 30.12 in 10.0 mi Calm Calm - N/A   Clear